WX8TJG-WX Weather Reports


Display with metric or nautical units.
time (UTC)temp
F
wind
direction
speed
MPH
gust
MPH
rain 1hr
in
rain 24hr
in
rain mn
in
humidity
%
barometer
mb
20260502164016 38 345 4.0 8.0 0.01 0.07 0.04 91 1018.1
20260502163017 37 356 5.0 10.0 0.01 0.07 0.04 92 1018.2
20260502162017 37 351 5.0 13.0 0.01 0.08 0.04 92 1018.3
20260502161057 37 343 5.0 9.0 0.02 0.08 0.04 92 1018.4
20260502151018 40 315 4.0 6.0 0.02 0.10 0.02 82 1017.8
20260502123018 35 1 3.0 7.0 0.00 0.26 0.00 90 1016.8
20260502122018 35 350 4.0 6.0 0.00 0.27 0.00 89 1016.8
20260502121018 34 316 3.0 6.0 0.00 0.28 0.00 89 1016.7
20260502115016 34 284 4.0 6.0 0.00 0.28 0.00 88 1016.7
20260502114016 34 283 3.0 7.0 0.00 0.28 0.00 89 1016.7
20260502113016 33 273 2.0 3.0 0.00 0.28 0.00 91 1016.7
20260502112036 33 268 1.0 3.0 0.00 0.28 0.00 92 1016.6
20260502111037 32 288 1.0 2.0 0.00 0.28 0.00 92 1016.5
20260502110018 31 283 1.0 2.0 0.00 0.28 0.00 92 1016.4
20260502105017 31 341 1.0 2.0 0.00 0.28 0.00 92 1016.4
20260502104017 31 345 1.0 2.0 0.00 0.29 0.00 91 1016.4
20260502103017 32 309 0.0 1.0 0.00 0.30 0.00 90 1016.5
20260502102017 32 296 1.0 2.0 0.00 0.30 0.00 90 1016.5
20260502101017 32 285 1.0 2.0 0.00 0.30 0.00 90 1016.4
20260502091037 34 289 2.0 4.0 0.00 0.30 0.00 88 1016.4
20260502071042 36 285 1.0 3.0 0.00 0.30 0.00 93 1016.1
20260502070038 37 245 1.0 3.0 0.00 0.30 0.00 94 1016.1
20260502065017 37 264 1.0 3.0 0.00 0.30 0.00 94 1016.1
20260502064016 37 280 1.0 3.0 0.00 0.30 0.00 94 1016.1
20260502063018 38 280 1.0 2.0 0.00 0.30 0.00 94 1016.2
20260502061015 39 315 0.0 1.0 0.00 0.30 0.00 93 1016.4
20260502060018 39 255 2.0 5.0 0.00 0.30 0.00 93 1016.4
20260502055036 40 275 1.0 5.0 0.00 0.30 0.00 93 1016.5
20260502054016 40 262 1.0 3.0 0.00 0.30 0.00 93 1016.5
20260502053016 40 237 0.0 2.0 0.00 0.30 0.00 92 1016.5
20260502052016 41 275 1.0 2.0 0.00 0.30 0.00 91 1016.5
20260502051017 41 283 4.0 6.0 0.00 0.30 0.00 92 1016.5
20260502050017 41 285 2.0 5.0 0.00 0.30 0.00 94 1016.5
20260502045017 41 281 1.0 3.0 0.00 0.29 0.00 94 1016.5
20260502044017 40 237 1.0 2.0 0.00 0.29 0.00 94 1016.5
20260502043037 40 293 0.0 2.0 0.00 0.29 0.00 94 1016.4
20260502042018 40 244 1.0 3.0 0.00 0.29 0.00 94 1016.4
20260502041017 41 199 0.0 2.0 0.00 0.29 0.00 93 1016.5
20260502040018 41 206 1.0 4.0 0.00 0.29 0.00 94 1016.6
20260502035015 41 200 1.0 4.0 0.00 0.29 0.29 94 1016.6
20260502034015 41 187 2.0 4.0 0.00 0.29 0.29 94 1016.6
20260502033016 40 186 1.0 4.0 0.00 0.29 0.29 94 1016.6
20260502032016 39 176 2.0 4.0 0.00 0.29 0.29 94 1016.7
20260502031015 39 214 0.0 1.0 0.00 0.29 0.29 93 1016.6
20260502030056 39 61 0.0 1.0 0.00 0.29 0.29 92 1016.5
20260502025016 39 13 0.0 1.0 0.00 0.29 0.29 92 1016.5
20260502024016 40 322 0.0 1.0 0.00 0.29 0.29 91 1016.4
20260502023016 40 186 0.0 2.0 0.00 0.29 0.29 91 1016.3
20260502022017 41 35 1.0 2.0 0.00 0.29 0.29 90 1016.3
20260502021017 41 4 0.0 1.0 0.00 0.29 0.29 90 1016.3
20260502020017 42 20 2.0 3.0 0.00 0.29 0.29 90 1016.3
20260502015017 42 22 2.0 3.0 0.00 0.29 0.29 91 1016.3
20260502013017 41 358 0.0 2.0 0.00 0.29 0.29 91 1015.9
20260502012017 41 269 0.0 1.0 0.00 0.29 0.29 91 1015.7
20260502011016 42 0.0 0.0 0.00 0.29 0.29 91 1015.7
20260502005016 42 268 0.0 1.0 0.00 0.29 0.29 89 1015.6
20260502004017 42 357 0.0 1.0 0.00 0.29 0.29 89 1015.7
20260502003015 42 37 0.0 1.0 0.00 0.29 0.29 88 1015.7
20260502002015 43 31 0.0 1.0 0.00 0.29 0.29 87 1015.6
20260502001036 43 0.0 0.0 0.00 0.29 0.29 86 1015.3
20260502000016 43 352 1.0 2.0 0.00 0.29 0.29 85 1015.2
20260501235017 43 299 2.0 4.0 0.00 0.29 0.29 85 1015.1
20260501234016 43 310 2.0 5.0 0.00 0.29 0.29 86 1015.1
20260501233017 43 296 1.0 3.0 0.00 0.29 0.29 85 1015.0
20260501232017 43 339 1.0 2.0 0.00 0.29 0.29 85 1014.9
20260501231017 43 317 3.0 4.0 0.00 0.29 0.29 84 1015.0
20260501230037 43 320 3.0 5.0 0.00 0.29 0.29 85 1015.0
20260501225017 43 349 3.0 6.0 0.00 0.29 0.29 84 1015.0
20260501224017 44 333 3.0 5.0 0.00 0.29 0.29 84 1015.1
20260501223018 44 341 3.0 6.0 0.00 0.29 0.29 85 1015.1
20260501222018 44 1 4.0 6.0 0.00 0.29 0.29 85 1015.2
20260501221018 44 324 5.0 7.0 0.01 0.29 0.29 84 1014.9
20260501220016 43 360 3.0 6.0 0.01 0.29 0.29 85 1014.8
20260501215015 43 355 2.0 5.0 0.01 0.29 0.29 85 1014.7
20260501214015 43 11 4.0 8.0 0.01 0.29 0.29 89 1014.6
20260501213016 42 3 5.0 9.0 0.01 0.29 0.29 90 1014.6
20260501212016 43 359 6.0 12.0 0.01 0.29 0.29 88 1014.5
20260501211016 44 318 4.0 7.0 0.00 0.28 0.28 86 1014.5
20260501210017 44 336 4.0 6.0 0.00 0.28 0.28 85 1014.3
20260501205016 44 344 3.0 5.0 0.00 0.28 0.28 87 1014.2
20260501204017 44 338 5.0 10.0 0.00 0.28 0.28 86 1014.2
20260501203017 44 346 4.0 6.0 0.00 0.28 0.28 88 1014.0
20260501202017 43 9 4.0 6.0 0.00 0.28 0.28 89 1014.0
20260501201017 42 351 5.0 8.0 0.00 0.28 0.28 89 1014.1
20260501200017 43 348 7.0 11.0 0.00 0.28 0.28 89 1013.9
20260501195017 43 327 6.0 9.0 0.00 0.28 0.28 90 1013.6
20260501194017 43 350 7.0 10.0 0.00 0.28 0.28 91 1013.7
20260501193018 43 332 5.0 8.0 0.00 0.28 0.28 92 1013.6
20260501192018 43 354 5.0 9.0 0.01 0.28 0.28 94 1013.4
20260501191018 42 337 6.0 10.0 0.01 0.28 0.28 94 1013.3
20260501190019 41 336 5.0 8.0 0.01 0.28 0.28 95 1013.3
20260501185015 41 343 5.0 9.0 0.01 0.28 0.28 94 1013.2
20260501184016 41 347 5.0 8.0 0.01 0.28 0.28 94 1013.0
20260501183036 41 19 5.0 7.0 0.01 0.28 0.28 94 1013.0
20260501182516 41 356 4.0 7.0 0.01 0.28 0.28 95 1013.0
20260501181516 41 354 4.0 8.0 0.00 0.27 0.27 95 1012.8
20260501180516 41 11 5.0 10.0 0.00 0.27 0.27 95 1012.6
20260501175516 41 349 5.0 8.0 0.00 0.27 0.27 95 1012.4
20260501174516 41 15 7.0 12.0 0.00 0.27 0.27 95 1012.3
20260501173517 41 358 6.0 9.0 0.00 0.27 0.27 95 1012.3
20260501172517 42 353 7.0 11.0 0.01 0.27 0.27 95 1012.1
20260501171517 43 348 7.0 11.0 0.01 0.27 0.27 94 1012.0